Regional Weather Roundup
Issued by NWS

Home | Current Version | Previous Version | Graphics & Text | Print | Product List | Glossary On
Versions: 1 2 3 4 5 6 7 8 9 10 11 12 13 14 15 16 17 18 19 20 21 22 23 24 25 26 27 28 29 30 31 32 33 34 35 36 37 38 39 40 41 42 43 44 45 46 47 48 49 50
000
ASUS45 KPSR 102200
RWRAZ

PRELIMINARY ARIZONA REGIONAL HOURLY WEATHER ROUNDUP
NATIONAL WEATHER SERVICE PHOENIX AZ
300 PM MST THU JUL 10 2014

NOTE: FAIR INDICATES FEW OR NO CLOUDS BELOW 12,000 FEET WITH NO
SIGNIFICANT WEATHER AND/OR OBSTRUCTIONS TO VISIBILITY.

AZZ001>003-036-102300-
NORTHWEST ARIZONA

CITY           SKY/WX    TMP DP  RH WIND       PRES   REMARKS
KINGMAN        TSTM      74  65  73 N26G32    30.05R
$$

AZZ004>008-015-016-018-102300-
NORTH CENTRAL ARIZONA

CITY           SKY/WX    TMP DP  RH WIND       PRES   REMARKS
GRAND CANYON   PTSUNNY   73  55  53 SW13G20   30.21S
WILLIAMS         N/A     75  54  46 SW12G18   30.28F
PRESCOTT       PTSUNNY   78  56  46 NW9       30.10S THUNDER
FLAGSTAFF      PTSUNNY   74  51  44 SW16G24   30.23R
PAYSON         MOSUNNY   84  54  34 SW10G16   30.10F
PAGE           PTSUNNY   92  51  24 W5G17     29.96F
$$

AZZ009>014-017-102300-
NORTHEAST ARIZONA

CITY           SKY/WX    TMP DP  RH WIND       PRES   REMARKS
WINSLOW        NOT AVBL
SAINT JOHNS    LGT RAIN  83  52  34 SE12      30.08F
WINDOW ROCK    MOSUNNY   86  43  22 MISG      30.16F
$$

AZZ023-102300-
GREATER PHOENIX AREA

CITY           SKY/WX    TMP DP  RH WIND       PRES   REMARKS
PHOENIX        MOSUNNY  103  58  22 S8        29.78F HX 102
GLENDALE       MOSUNNY  100  59  25 S14       29.81F HX 100
DEER VALLEY    SUNNY     97  57  26 VRB3G17   29.80F
SCOTTSDALE     SUNNY     99  58  25 CALM      29.83F
MESA-GATEWAY   MOSUNNY   99  54  22 W9G17     29.84F
CHANDLER       MOSUNNY  100  61  27 SW8       29.80F HX 101
$$

AZZ027-028-102300-
SOUTHWEST MARICOPA COUNTY AND PINAL COUNTY

CITY           SKY/WX    TMP DP  RH WIND       PRES   REMARKS
CASA GRANDE    SUNNY     99  61  28 SW3       29.83F
GILA BEND      PTCLDY   102  59  24 W3G17     29.83S HX 102
$$

AZZ503-504-507>509-102300-
SOUTHEAST ARIZONA

CITY           SKY/WX    TMP DP  RH WIND       PRES   REMARKS
TUCSON         MOSUNNY   98  55  23 VRB5      29.91F
RYAN FIELD       N/A     97  57  26 W14       29.90F
NOGALES        MOSUNNY   91  56  30 SW8       30.00F
SIERRA VISTA   MOSUNNY   90  52  27 W8        30.05F
SAFFORD        MOSUNNY   99  54  22 W22G29    29.87F
$$

AZZ020-021-025-026-031-102300-
SOUTHWEST ARIZONA

CITY           SKY/WX    TMP DP  RH WIND       PRES   REMARKS
YUMA           NOT AVBL
$$

CAZ031-033-041-043-047-048-061-102300-
SOUTHERN CALIFORNIA

CITY           SKY/WX    TMP DP  RH WIND       PRES   REMARKS
DOWNTOWN L.A.  SUNNY     79  61  53 W9        29.90F
L.A. AIRPORT   MOSUNNY   75  61  61 W16       29.92F
SAN DIEGO      SUNNY     77  61  57 NW10      29.92F
BURBANK        SUNNY     83  56  39 S12       29.89F
ONTARIO        MOSUNNY   91  54  28 W14G21    29.89F
RIVERSIDE      SUNNY     91  50  24 W13G20    29.88F
PALM SPRINGS   SUNNY    106  43  12 N13G22    29.75F HX 101
EL CENTRO NAS  MOSUNNY  105  43  12 SE6       29.72F HX 100
IMPERIAL       SUNNY    105  46  13 VRB5G17   29.72F HX 101
BLYTHE         SUNNY    105  49  15 SE17G25   29.73F HX 102
$$

NVZ020-UTZ003-102300-
SOUTHERN NEVADA-UTAH

CITY           SKY/WX    TMP DP  RH WIND       PRES   REMARKS
LAS VEGAS      NOT AVBL
SALT LAKE CITY PTSUNNY   91  51  25 W9        29.92F
$$

NMZ009-TXZ055-102300-
NEW MEXICO-WEST TEXAS

CITY           SKY/WX    TMP DP  RH WIND       PRES   REMARKS
ALBUQUERQUE    MOSUNNY   91  48  22 VRB7      30.06F
EL PASO        PTSUNNY   97  50  20 VRB3      29.95F
$$


........................KEY........................
SKY/WX - SKY CONDITION/WEATHER
TMP    - TEMPERATURE IN FAHRENHEIT
DP     - DEW POINT IN FAHRENHEIT
RH     - RELATIVE HUMIDITY IN PERCENT
WIND   - DIRECTION AND SPEED IN MILES PER HOUR (MPH)
VRB    - VARIABLE WIND DIRECTION
PRES   - MEAN SEA LEVEL PRESSURE IN INCHES OF MERCURY
         F - FALLING PRESSURE   R - RISING PRESSURE
         S - STEADY PRESSURE
VSB    - VISIBILITY IN MILES
HX     - HEAT INDEX IN FAHRENHEIT
WCI    - WIND CHILL INDEX IN FAHRENHEIT
TC     - TEMPERATURE IN CELSIUS WHICH IS ALSO KNOWN AS
         TEMPERATURE IN CENTIGRADE
AFB    - AIR FORCE BASE
         LUKE AFB IS LUKE AIR FORCE BASE
         DAVIS-MONTHAN IS DAVIS-MONTHAN AIR FORCE BASE
NAS    - NAVAL AIR STATION
         EL CENTRO NAS IS EL CENTRO NAVAL AIR STATION
N/A    - NOT AVAILABLE



USA.gov is the U.S. government's official web portal to all federal, state and local government web resources and services.